Location: Brno
(49.2000°N, 16.6330°E)
Time: 10:14:02
(UTC+02:00)

ISS - Pass Details

Date: 20 May 2021
Orbit: 417 x 422 km, 51.6° (Epoch: 13 June)

Event Time Altitude Azimuth Distance (km) Brightness Sun altitude
Rises 01:19:58 0° 290° (WNW) 2,371 0.2 -20.5°
Reaches altitude 10° 01:22:05 10° 286° (WNW) 1,505 -0.9 -20.5°
Enters shadow 01:23:17 20° 280° (W) 1,039 -1.8 -20.4°
